| time (UTC) | temp C | wind direction | speed KPH | gust KPH | rain 1hr cm | rain 24hr cm | rain mn cm | humidity % | barometer mb |
| 20260506134517 | 7 | 176 | 0.0 | 4.8 | 0.00 | 0.08 | 0.00 | 46 | 1008.7 |
| 20260506133036 | 7 | 314 | 0.0 | 4.8 | 0.00 | 0.08 | 0.00 | 43 | 1008.6 |
| 20260506131520 | 8 | 217 | 0.0 | 4.8 | 0.00 | 0.08 | 0.00 | 42 | 1008.6 |
| 20260506130012 | 7 | 16 | 0.0 | 6.4 | 0.00 | 0.08 | 0.00 | 42 | 1008.6 |
| 20260506124510 | 8 | 222 | 1.6 | 8.0 | 0.00 | 0.08 | 0.00 | 43 | 1008.5 |
| 20260506123007 | 7 | 183 | 0.0 | 4.8 | 0.00 | 0.08 | 0.00 | 44 | 1008.5 |
| 20260506121503 | 6 | 271 | 0.0 | 0.0 | 0.00 | 0.08 | 0.00 | 47 | 1008.4 |
| 20260506120100 | 5 | 212 | 0.0 | 1.6 | 0.00 | 0.08 | 0.00 | 50 | 1008.4 |
| 20260506114604 | 5 | 98 | 0.0 | 3.2 | 0.00 | 0.08 | 0.00 | 47 | 1008.3 |
| 20260506113101 | 5 | 330 | 0.0 | 3.2 | 0.00 | 0.08 | 0.00 | 47 | 1008.2 |
| 20260506111605 | 5 | 47 | 0.0 | 3.2 | 0.00 | 0.08 | 0.00 | 47 | 1008.1 |
| 20260506110054 | 5 | 333 | 0.0 | 1.6 | 0.00 | 0.08 | 0.00 | 47 | 1008.1 |
| 20260506104558 | 5 | 71 | 0.0 | 3.2 | 0.00 | 0.08 | 0.00 | 50 | 1007.8 |
| 20260506103058 | 5 | 34 | 0.0 | 3.2 | 0.00 | 0.08 | 0.00 | 49 | 1007.8 |
| 20260506101552 | 5 | 60 | 0.0 | 0.0 | 0.00 | 0.08 | 0.00 | 50 | 1007.6 |
| 20260506100051 | 5 | 82 | 3.2 | 9.7 | 0.00 | 0.08 | 0.00 | 51 | 1007.5 |
| 20260506094545 | 5 | 72 | 0.0 | 4.8 | 0.00 | 0.08 | 0.00 | 51 | 1007.3 |
| 20260506093044 | 5 | 333 | 0.0 | 4.8 | 0.00 | 0.08 | 0.00 | 50 | 1007.2 |
| 20260506091542 | 5 | 78 | 0.0 | 6.4 | 0.00 | 0.08 | 0.00 | 50 | 1006.9 |
| 20260506090041 | 5 | 200 | 0.0 | 11.3 | 0.00 | 0.08 | 0.00 | 48 | 1006.8 |
| 20260506084542 | 5 | 43 | 0.0 | 1.6 | 0.00 | 0.20 | 0.00 | 50 | 1006.7 |
| 20260506083035 | 5 | 83 | 0.0 | 8.0 | 0.00 | 0.20 | 0.00 | 55 | 1006.6 |
| 20260506081532 | 4 | 245 | 0.0 | 4.8 | 0.00 | 0.20 | 0.00 | 55 | 1006.5 |
| 20260506073024 | 3 | 37 | 1.6 | 6.4 | 0.00 | 0.25 | 0.00 | 59 | 1006.1 |
| 20260506071521 | 3 | 115 | 3.2 | 12.9 | 0.00 | 0.25 | 0.00 | 60 | 1005.9 |
| 20260506061507 | 2 | 90 | 0.0 | 3.2 | 0.00 | 0.25 | 0.00 | 65 | 1005.4 |
| 20260506044613 | 1 | 27 | 0.0 | 4.8 | 0.00 | 0.25 | 0.00 | 80 | 1004.7 |
| 20260506043049 | 0 | 331 | 0.0 | 6.4 | 0.00 | 0.25 | 0.00 | 81 | 1004.6 |
| 20260506041548 | 1 | 63 | 1.6 | 8.0 | 0.00 | 0.25 | 0.00 | 81 | 1004.4 |
| 20260506040047 | 0 | 96 | 0.0 | 6.4 | 0.00 | 0.25 | 0.00 | 81 | 1004.3 |
| 20260506034543 | 0 | 62 | 0.0 | 4.8 | 0.00 | 0.25 | 0.00 | 83 | 1004.2 |
| 20260506033043 | 0 | 61 | 0.0 | 4.8 | 0.00 | 0.25 | 0.00 | 85 | 1004.1 |
| 20260506031541 | 0 | 16 | 0.0 | 4.8 | 0.00 | 0.25 | 0.00 | 85 | 1003.9 |
| 20260506030037 | 0 | 71 | 0.0 | 3.2 | 0.00 | 0.25 | 0.00 | 86 | 1003.7 |
| 20260506024537 | 0 | 321 | 0.0 | 3.2 | 0.00 | 0.25 | 0.00 | 86 | 1003.6 |
| 20260506023046 | 0 | 82 | 0.0 | 1.6 | 0.00 | 0.25 | 0.00 | 87 | 1003.5 |
| 20260506021534 | 0 | 106 | 0.0 | 3.2 | 0.00 | 0.25 | 0.00 | 87 | 1003.3 |
| 20260506020033 | 0 | 65 | 0.0 | 3.2 | 0.00 | 0.25 | 0.00 | 87 | 1003.2 |
| 20260506014528 | 0 | 63 | 0.0 | 6.4 | 0.00 | 0.25 | 0.00 | 87 | 1003.1 |
| 20260506013025 | 0 | 72 | 0.0 | 6.4 | 0.00 | 0.25 | 0.00 | 87 | 1002.9 |
| 20260506011522 | 0 | 97 | 0.0 | 6.4 | 0.00 | 0.25 | 0.00 | 86 | 1002.8 |
| 20260506010041 | 0 | 58 | 1.6 | 6.4 | 0.00 | 0.25 | 0.00 | 86 | 1002.6 |
| 20260506004519 | 0 | 6 | 0.0 | 1.6 | 0.00 | 0.25 | 0.00 | 87 | 1002.6 |
| 20260506003018 | 0 | 71 | 0.0 | 1.6 | 0.00 | 0.25 | 0.00 | 86 | 1002.4 |
| 20260506001515 | 0 | 91 | 0.0 | 0.0 | 0.00 | 0.25 | 0.00 | 86 | 1002.2 |
| 20260506000013 | 0 | 99 | 0.0 | 0.0 | 0.00 | 0.25 | 0.00 | 86 | 1002.0 |
| 20260505234530 | 0 | 65 | 0.0 | 0.0 | 0.00 | 0.25 | 0.00 | 86 | 1001.9 |
| 20260505233008 | 0 | 65 | 0.0 | 1.6 | 0.00 | 0.25 | 0.00 | 84 | 1001.9 |
| 20260505231506 | 1 | 95 | 0.0 | 0.0 | 0.00 | 0.25 | 0.00 | 84 | 1001.8 |
| 20260505230007 | 1 | 80 | 0.0 | 1.6 | 0.00 | 0.25 | 0.00 | 85 | 1001.7 |
| 20260505224506 | 1 | 72 | 0.0 | 1.6 | 0.00 | 0.25 | 0.00 | 85 | 1001.6 |
| 20260505223001 | 1 | 70 | 0.0 | 1.6 | 0.00 | 0.25 | 0.00 | 85 | 1001.6 |
| 20260505221601 | 1 | 108 | 0.0 | 0.0 | 0.00 | 0.25 | 0.00 | 86 | 1001.4 |
| 20260505220058 | 1 | 82 | 0.0 | 3.2 | 0.00 | 0.25 | 0.00 | 87 | 1001.3 |
| 20260505214623 | 1 | 110 | 0.0 | 0.0 | 0.00 | 0.25 | 0.00 | 87 | 1001.2 |
| 20260505213102 | 1 | 95 | 0.0 | 1.6 | 0.00 | 0.25 | 0.00 | 87 | 1001.0 |
| 20260505211551 | 1 | 97 | 0.0 | 1.6 | 0.00 | 0.25 | 0.00 | 86 | 1000.8 |
| 20260505210056 | 1 | 105 | 0.0 | 3.2 | 0.00 | 0.25 | 0.00 | 86 | 1000.7 |
| 20260505204556 | 1 | 80 | 0.0 | 0.0 | 0.00 | 0.25 | 0.25 | 85 | 1000.5 |
| 20260505203052 | 1 | 58 | 0.0 | 1.6 | 0.00 | 0.25 | 0.25 | 84 | 1000.3 |
| 20260505201545 | 1 | 94 | 0.0 | 3.2 | 0.00 | 0.25 | 0.25 | 83 | 1000.2 |
| 20260505200058 | 1 | 68 | 0.0 | 4.8 | 0.00 | 0.25 | 0.25 | 84 | 1000.1 |
| 20260505194547 | 1 | 74 | 0.0 | 1.6 | 0.00 | 0.25 | 0.25 | 85 | 1000.0 |
| 20260505193045 | 1 | 77 | 0.0 | 0.0 | 0.00 | 0.25 | 0.25 | 85 | 1000.0 |
| 20260505191538 | 1 | 82 | 0.0 | 3.2 | 0.00 | 0.25 | 0.25 | 84 | 999.8 |
| 20260505190038 | 2 | 84 | 0.0 | 1.6 | 0.03 | 0.25 | 0.25 | 85 | 999.6 |
| 20260505184534 | 2 | 82 | 0.0 | 4.8 | 0.03 | 0.25 | 0.25 | 84 | 999.4 |
| 20260505183033 | 2 | 49 | 0.0 | 3.2 | 0.05 | 0.25 | 0.25 | 86 | 999.1 |
| 20260505181531 | 2 | 86 | 0.0 | 4.8 | 0.05 | 0.25 | 0.25 | 86 | 999.0 |
| 20260505180051 | 2 | 321 | 0.0 | 8.0 | 0.03 | 0.23 | 0.23 | 84 | 999.0 |
| 20260505174547 | 3 | 65 | 0.0 | 11.3 | 0.03 | 0.23 | 0.23 | 83 | 998.7 |
| 20260505173031 | 3 | 44 | 0.0 | 1.6 | 0.00 | 0.23 | 0.23 | 80 | 998.5 |
| 20260505171524 | 4 | 37 | 0.0 | 8.0 | 0.03 | 0.23 | 0.23 | 79 | 998.3 |
| 20260505170022 | 3 | 54 | 1.6 | 9.7 | 0.03 | 0.23 | 0.23 | 82 | 998.1 |
| 20260505164519 | 3 | 29 | 0.0 | 6.4 | 0.03 | 0.23 | 0.23 | 86 | 998.0 |
| 20260505163021 | 3 | 16 | 0.0 | 9.7 | 0.03 | 0.23 | 0.23 | 86 | 997.9 |
| 20260505161515 | 4 | 30 | 4.8 | 11.3 | 0.03 | 0.20 | 0.20 | 78 | 997.8 |
| 20260505153012 | 3 | 102 | 3.2 | 12.9 | 0.03 | 0.20 | 0.20 | 81 | 997.5 |
| 20260505151513 | 4 | 103 | 0.0 | 1.6 | 0.00 | 0.18 | 0.18 | 79 | 997.1 |